STARLINK-34561, 65081

Orbit data source: Space-Track

STARLINK-34561, 65081 is a payload satellite owned by SpaceX/Seattle (US) in LEO that was launched on Mon, 04 Aug 2025 UTC via an FALCON 9 launch vehicle from the Air Force Eastern Test Range (AFETR). Payload-class satellites include a variety of spacecraft equipped with specific instruments for various scientific and technological missions. These include communications satellites like Starlink; space stations such as the ISS; scientific satellites like the Hubble; Earth observation satellites from companies like Planet Labs, Umbra, and HawkEye 360; GPS; miniature CubeSats for education and research; and military/defense satellites.

Loading next visibility...
Identifier
65081, 2025-167D
Orbit
LEO
Country
Flag of USUS
Related business
Manufacturer
SpaceX/Seattle
Mission
Operational spacecraft
Bus & Motor
STARLINK V2MO, Unknown motor
Mass
575 kg wet, ~530 kg dry
Launch date (UTC)
2025-08-04 (1 month ago)
Launch vehicle
FALCON 9
Launch site
Air Force Eastern Test Range (AFETR)
Object type
Payload
Rocket body
Debris
Shape & HBR
Unknown
Radar Cross Section
Large (>1 m²)

Expand to show TLE details & history
Last TLE update: 9 hours ago

TLE from 9 hours ago
0 STARLINK-34561
1 65081U 25167D   25243.25001157 -.01601847  00000-0 -29123-1 0  9995
2 65081  53.1596 195.1997 0001313  83.9447  54.3945 15.51955142  5558
Epoch: 2025-08-31T06:00Z
TLE epoch observation values (Epoch: 2025-08-31T06:00:00.999Z)
Latitude
32.23407°
Longitude
-82.49728°
Altitude
412.573 km
Speed
7.668 km/s
True Right ascension
23h 08m 43s
True Declination
32° 04' 16"
Sunlit
Object was in full shadow at epoch
Visualization orbit readout
Latitude
Unknown
Longitude
Unknown
Altitude
Unknown
Speed
Unknown
Apparent Right ascension
Unknown
Apparent Declination
Unknown
Sunlit
N/A
Visualization observer readout
Local Sidereal Time
06:16:20
Azimuth
Unknown
Elevation
Unknown
Doppler factor
Unknown
Orbital elements
Apogee altitude
412.168 km
Perigee altitude
410.386 km
Semi-major axis
6,789.414 km
Eccentricity
0.00013
Inclination
53.1596°
RAAN
195.1997°
Arg. of periapsis
83.9447°
True anomaly
54.40673°
Mean anomaly
54.3945°
Eccentric anomaly
54.40062°
Mean motion
3.87967 °/min
Orbital period
92.79 mins
BSTAR
-0.029123
Loading maneuver chart data...
Computing Atmospheric mass density...
Loading historical data...
Loading historical data...
Loading historical data...
Loading historical data...
Loading historical data...
Loading historical data...
Loading historical data...

Documentation

Showing up to 5 results
|